Location: Observatory
(52.1446°N, 0.4624°W)
Time: 11:13:18
(UTC+01:00)

ISS - Pass Details

Date: 07 July 2020
Orbit: 417 x 420 km, 51.6° (Epoch: 02 July)

Event Time Altitude Azimuth Distance (km) Brightness Sun altitude
Exits shadow 01:36:48 17° 130° (SE) 1,131 -1.9 -15.0°
Drops below altitude 10° 01:38:36 10° 99° (E) 1,497 -1.0 -15.0°
Sets 01:41:08 0° 80° (E) 2,363 0.3 -14.9°
